Location: Slemon Park
(46.4340°N, 63.8219°W)
Time: 12:00:20
(UTC-03:00)

Daily predictions for brighter satellites

Satellite Brightness Start Highest point End
(mag) Time Altitude Azimuth Time Altitude Azimuth Time Altitude Azimuth
NOSS 3-4 (A) 3.9 20:23:54 10° NW 20:30:54 87° NE 20:38:19 10° SE
NOSS 3-4 (C) 3.9 20:24:01 10° NW 20:31:01 87° NE 20:38:26 10° SE
Cosmos 1943 Rocket 4.0 20:27:34 10° WSW 20:32:45 37° NW 20:38:01 10° NNE
FENGYUN 3A 3.7 20:29:36 10° SSE 20:34:56 76° ENE 20:40:18 10° N
Cosmos 1544 Rocket 3.6 20:32:19 10° S 20:36:38 62° E 20:41:01 10° NNE
Cosmos 1536 3.2 20:34:25 10° SSW 20:38:24 71° W 20:42:27 10° N
Cosmos 2208 Rocket 4.3 20:33:25 10° S 20:38:28 47° ESE 20:43:38 10° NNE
Meteor 1-5 Rocket 4.2 20:35:30 10° S 20:40:44 61° E 20:46:08 10° NNE
Tiangong 1 1.8 20:38:31 10° WSW 20:41:25 36° S 20:44:17 10° ESE
Cosmos 2082 3.8 20:36:54 10° NNW 20:42:31 66° ENE 20:48:06 10° SE
OTV 4 2.6 20:40:53 10° SW 20:42:46 16° S 20:44:39 10° SSE
RESURS DK-1 4.2 20:40:02 10° N 20:43:00 19° NE 20:45:57 10° E
USA 186 1.6 20:40:53 10° SSE 20:43:57 65° ENE 20:46:50 10° N
Cosmos 2297 Rocket 2.5 20:39:13 10° NNW 20:44:46 55° ENE 20:50:19 10° SE
Cosmos 1821 Rocket 4.1 20:49:18 10° S 20:55:25 83° W 21:01:33 10° N
Cosmos 1570 Rocket 4.0 20:50:25 10° S 20:55:41 71° ESE 21:00:57 10° NNE
Meteor 2-16 Rocket 4.4 20:49:59 10° S 20:56:03 83° E 21:02:10 10° N
CZ-4 DEB 3.2 20:54:08 10° SE 20:57:07 42° ENE 21:00:07 10° N
Cosmos 1605 Rocket 4.0 20:52:07 10° S 20:58:22 64° E 21:04:34 10° NNE
Envisat 3.6 20:54:21 10° SE 20:59:03 40° ENE 21:03:46 10° N
Cosmos 1937 Rocket 4.5 20:54:41 10° N 20:59:24 32° ENE 21:03:28 13° ESE
SJ-11-01 4.4 21:00:25 10° SSE 21:05:02 60° ENE 21:09:40 10° N
Cosmos 1515 4.1 21:02:52 10° N 21:06:35 44° ENE 21:09:54 12° SSE
EO 1 Delta rocket 3.9 21:04:22 10° N 21:09:01 87° W 21:14:07 10° SSW
Cosmos 2150 Rocket 4.4 21:04:46 10° NNW 21:09:46 47° ENE 21:13:51 15° SE
Iridium 4 Rocket 3.5 21:06:06 10° N 21:11:19 62° E 21:16:03 10° SSE
DELTA 2 R/B (1) 4.3 21:10:44 10° WSW 21:15:52 39° S 21:19:38 17° SE
Cosmos 1066 Rocket 4.4 21:10:51 10° N 21:16:23 54° ENE 21:21:28 13° SSE
YAOGAN 6 4.1 21:15:06 17° E 21:16:36 22° ENE 21:19:30 10° NNE
YAOGAN 11 4.1 21:13:16 10° SSE 21:17:47 82° ENE 21:22:16 10° NNW
Cosmos 1743 4.0 21:18:09 19° ESE 21:19:29 23° E 21:22:37 10° NE
Cosmos 1975 2.8 21:19:07 10° S 21:23:12 72° E 21:27:19 10° NNE
Cosmos 1697 Rocket 3.2 21:21:09 10° S 21:26:17 37° ESE 21:31:26 10° NE
Cosmos 2278 3.8 21:22:43 10° SSW 21:28:24 85° WNW 21:34:09 10° NNE
Lacrosse 5 rocket 1.7 21:28:00 10° WNW 21:31:36 47° SW 21:33:40 21° SSE
H-2A R/B 2.1 21:29:23 21° SE 21:31:53 54° ENE 21:35:56 10° N
ERS-1 Rocket 3.0 21:27:57 10° SSE 21:32:59 82° WSW 21:38:02 10° NNW
Cosmos 1626 Rocket 3.9 21:29:12 10° NNW 21:33:36 67° W 21:37:56 10° S
ALOS 4.2 21:29:45 10° SSW 21:33:48 29° W 21:37:54 10° NW
Cosmos 1898 Rocket 3.5 21:29:40 10° NNW 21:35:01 80° ENE 21:38:49 19° SSE
deb Chang Zheng 4 3.9 21:33:23 10° NNE 21:37:43 46° E 21:40:52 17° SSE
Meteor 1-12 Rocket 4.4 21:32:08 10° SSW 21:37:51 82° W 21:43:46 10° N
Cosmos 1461 4.5 21:38:01 10° NW 21:41:33 29° WSW 21:44:43 11° S
Cosmos 2369 3.9 21:36:03 10° SSW 21:41:43 76° WNW 21:47:28 10° NNE
Cosmos 1602 Rocket 4.3 21:37:35 10° NNW 21:41:58 55° W 21:46:18 10° S
Cosmos 1459 Rocket 4.0 21:37:16 10° S 21:43:09 58° E 21:49:08 10° NNE
Cosmos 1758 Rocket 4.3 21:39:57 10° N 21:43:58 34° ENE 21:45:10 29° ESE
Cosmos 1763 Rocket 4.3 21:44:21 26° ESE 21:45:08 28° E 21:49:25 10° NE
Cosmos 1980 Rocket 2.8 21:45:16 20° SSE 21:48:22 35° ESE 21:53:29 10° NE
SL-24 R/B - RUBIN 2 4.3 21:43:18 10° SSW 21:49:10 67° ESE 21:55:41 10° NE
ARGOS 3.7 21:49:20 27° ESE 21:51:42 43° ENE 21:56:47 10° N
Cosmos 1939 Rocket 3.5 21:51:41 15° S 21:54:56 55° W 21:59:04 10° NNW
Cosmos 468 Rocket 3.8 21:52:08 10° SSW 21:57:14 71° ESE 22:02:21 10° NNE
Lacrosse 5 1.8 21:53:00 10° NW 21:58:05 87° SW 22:00:15 35° SE
USA 215 3.5 21:57:32 24° ESE 22:01:40 64° NNE 22:08:08 10° NW
Cosmos 2084 3.8 22:00:21 10° NW 22:04:18 53° SW 22:05:45 34° S
Meteor 1-21 4.2 21:58:43 10° N 22:04:30 75° ENE 22:07:30 30° SSE
SPOT 5 2.9 22:02:07 26° SSE 22:05:00 85° WSW 22:09:52 10° NNW
Cosmos 1814 Rocket 3.9 22:00:03 10° SSW 22:05:22 72° ESE 22:10:40 10° NNE
Cosmos 841 Rocket 4.0 22:05:03 36° ESE 22:05:40 37° ESE 22:10:28 10° NE
Cosmos 2058 Rocket 3.6 22:07:22 39° E 22:07:35 39° E 22:11:49 10° NNE
Cosmos 1802 Rocket 4.0 22:02:58 13° S 22:08:41 77° E 22:15:08 10° N
MetOp-B 4.1 22:07:59 29° SSE 22:10:49 88° WSW 22:16:13 10° NNW
Cosmos 1666 3.5 22:12:19 35° ENE 22:12:19 35° ENE 22:15:07 10° NNE
Cosmos 2227 Rocket 4.1 22:08:16 10° NW 22:12:45 25° WSW 22:17:13 10° SSW
SL-08 R/B 4.5 22:11:04 29° SSE 22:14:17 60° E 22:20:22 10° NNE
Cosmos 2263 Rocket 3.5 22:10:09 10° N 22:14:46 26° NE 22:16:34 22° ENE
Tiangong 1 2.7 22:14:43 10° WSW 22:16:25 25° SW 22:16:25 25° SW
Cosmos 1606 Rocket 3.4 22:17:36 44° S 22:18:56 79° E 22:23:23 10° NNE
Cosmos 2322 Rocket 3.6 22:21:36 21° ENE 22:21:36 21° ENE 22:24:23 10° NE
RESURS DK-1 2.7 22:17:21 10° NW 22:21:26 57° WSW 22:22:21 45° SSW
Cosmos 1656 4.1 22:17:32 10° SW 22:23:05 63° WNW 22:28:38 10° NNE
BREEZE-M TANK 3.6 22:16:28 10° WNW 22:24:09 37° SW 22:24:54 34° SSW
Cosmos 2360 4.4 22:24:45 45° SE 22:25:40 49° ESE 22:31:11 10° NE
SL-19 R/B 4.1 22:21:23 10° NNE 22:26:56 70° ESE 22:28:55 39° S
Cosmos 2016 Rocket 3.9 22:23:05 23° S 22:27:09 88° E 22:33:24 10° N
Cosmos 2297 Rocket 4.0 22:23:54 10° NW 22:28:27 25° WSW 22:32:48 11° SSW
Landsat 7 4.0 22:28:52 49° E 22:29:23 52° ENE 22:34:02 10° N
CZ-4C R/B 4.1 22:29:21 43° ENE 22:29:24 43° ENE 22:33:36 10° N
Meteor 2-9 Rocket 4.1 22:28:34 48° SSE 22:29:51 61° E 22:35:11 10° NNE
SL-08 RB Rocket 3.7 22:29:16 60° SE 22:30:01 74° ENE 22:34:41 10° N
CARTOSAT-1 4.4 22:30:30 36° ENE 22:30:30 36° ENE 22:34:19 10° N
PSLV R/B 4.2 22:31:35 43° WNW 22:31:35 43° WNW 22:34:10 10° NNW
Cosmos 2227 4.2 22:25:53 10° NNW 22:31:41 86° WSW 22:33:25 47° SSE
Cosmos 1340 3.4 22:30:43 10° NNW 22:34:23 48° W 22:34:56 44° SW
CZ-4 R/B 4.1 22:31:01 10° NNE 22:35:15 49° E 22:35:15 49° E
Cosmos 405 Rocket 3.9 22:35:10 10° N 22:37:44 31° NE 22:37:44 31° NE
H-2A R/B 2.0 22:39:13 55° E 22:39:41 57° ENE 22:44:32 10° N
Cosmos 1726 Rocket 3.7 22:42:19 51° SW 22:43:15 68° W 22:47:40 10° N
ASTEX 1 3.9 22:39:04 10° N 22:43:59 58° W 22:46:26 29° SSW
Terra 2.1 22:44:43 52° ENE 22:44:45 52° ENE 22:49:23 10° N
Cosmos 2098 Rocket 4.0 22:45:59 29° S 22:49:46 84° W 22:55:42 10° N
YAOGAN 6 4.2 22:49:35 28° WSW 22:50:02 29° W 22:53:20 10° NNW
GEOS 3 Rocket 3.7 22:45:04 10° NE 22:49:23 54° E 22:49:23 54° E
Tsikada Rocket 4.1 22:47:01 10° N 22:53:28 79° W 22:55:35 45° S
Cosmos 1864 Rocket 4.4 22:52:34 43° S 22:54:45 87° W 23:00:56 10° N
SPOT 1/Viking Rocket 4.2 22:57:14 39° SW 22:58:39 49° W 23:03:44 10° NNW
Spot 4 4.2 23:02:41 54° NE 23:02:41 54° NE 23:07:00 10° N
CZ-4B R/B 3.4 22:57:45 10° N 23:02:30 73° WNW 23:03:04 65° WSW
H-2A R/B 4.5 23:06:31 12° WSW 23:08:16 15° W 23:10:37 10° NW
Cosmos 836 Rocket 4.4 23:08:22 83° SSW 23:08:35 90° NW 23:13:55 10° NNE
Cosmos 1697 Rocket 4.0 23:04:58 10° WSW 23:10:14 39° NW 23:15:31 10° NNE
SL-16 R/B 2.5 23:15:31 53° ENE 23:15:31 53° ENE 23:20:06 10° NNE
GP-B 3.8 23:13:03 10° N 23:16:20 48° NNE 23:16:20 48° NNE
Cosmos 2346 Rocket 4.3 23:15:40 10° N 23:21:56 88° W 23:22:33 74° S
Cosmos 1125 Rocket 3.9 23:18:10 10° NNW 23:23:14 55° WSW 23:23:14 55° WSW
Cosmos 1844 Rocket 4.3 23:23:40 10° N 23:28:05 23° NE 23:28:53 23° ENE
Cosmos 1707 4.4 23:24:34 10° N 23:26:42 31° N 23:26:42 31° N
Cosmos 2228 4.1 23:29:03 40° WNW 23:29:03 40° WNW 23:32:45 10° N
Meteor 2-5 Rocket 3.7 23:23:04 10° NNW 23:29:02 89° W 23:29:09 87° S
Cosmos 1980 Rocket 3.3 23:26:56 10° SW 23:32:18 42° NW 23:37:43 10° NNE
Cosmos 2360 Rocket 3.7 23:35:19 24° ENE 23:35:19 24° ENE 23:37:50 10° NE
Lacrosse 5 4.0 23:37:06 10° W 23:39:26 17° WSW 23:39:26 17° WSW
Cosmos 1072 Rocket 4.5 23:42:22 70° ENE 23:42:22 70° ENE 23:48:14 10° NNE
BREEZE-M DEB (TANK) 4.2 23:16:10 10° WNW 23:42:14 69° SW 23:43:29 60° S
USA 215 3.6 23:44:53 48° SW 23:44:53 48° SW 23:51:08 10° WNW
DMSP B5D2-2 4.4 23:41:29 10° N 23:46:32 64° WNW 23:46:32 64° WNW
